User: anonymous   Login
Location: Unspecified
(0.0000°N, 0.0000°E)
Time: 23:39:16
(UTC+00:00)
Language:

GSAT 7 - Orbit

View from above orbital plane
View from above orbital plane
View from above satellite
View from above satellite

Ground track
Ground track

The orbit data is extracted from the following two-line orbital elements,

1 39234U 13044B   14302.97345895 -.00000087  00000-0  00000+0 0  3701
2 39234 000.0724 085.6700 0009543 180.0152 196.9824 01.00270661  4310
Epoch (UTC): 29 October 2014 23:21:46
Eccentricity: 0.0009543
inclination: 0.0724°
perigee height: 35746 km
apogee height: 35827 km
right ascension of ascending node: 85.6700°
argument of perigee: 180.0152°
revolutions per day: 1.00270661
mean anomaly at epoch: 196.9824°
orbit number at epoch: 431

The dashed part of the orbit path shows where the satellite is in the earth's shadow,  

DLR